Terminal Aerodrome Forecast
Issued by NWS Flagstaff, AZ

Home | Current Version | Previous Version | Text Only | Print | Product List | Glossary On
Versions: 1 2 3 4 5 6 7 8 9 10 11 12 13 14 15 16 17
000
FTUS45 KFGZ 301735
TAFINW
TAF
KINW 301735Z 3018/0118 29008KT P6SM SCT120
     FM302200 VRB15G25KT P6SM VCTS BKN100CB
     FM010200 21008KT P6SM BKN120=

USA.gov is the U.S. government's official web portal to all federal, state and local government web resources and services.